"read_dt","SO2 (ppb)","flags","PMT voltage (V)","lamp voltage (V)","lamp intensity (Hz)","internal temp (C)","react chamber temp (C)","sample flow (l/min)","pres (mmHg)","SO2 bkg (ppb)","SO2 coefficient"
2016-10-04 00:00:00,1636E-3,5C000000,-0724,0827,11981,028.5,045.5,0.454,748.0,01.17,0.508
2016-10-04 00:01:00,1655E-3,5C000000,-0724,0827,12112,028.5,045.5,0.454,748.0,01.17,0.508
2016-10-04 00:02:00,1687E-3,5C000000,-0724,0826,12233,028.5,045.5,0.453,748.0,01.17,0.508
2016-10-04 00:03:00,1644E-3,5C000000,-0724,0828,12347,028.5,045.5,0.454,748.0,01.17,0.508
2016-10-04 00:04:00,1545E-3,5C000000,-0724,0827,12309,028.5,045.5,0.454,748.0,01.17,0.508
2016-10-04 00:05:00,1586E-3,5C000000,-0724,0827,12192,028.5,045.5,0.454,748.0,01.17,0.508
2016-10-04 00:06:00,1664E-3,5C000000,-0724,0827,12166,028.5,045.5,0.454,748.0,01.17,0.508
2016-10-04 00:07:00,1574E-3,5C000000,-0724,0827,12241,028.5,045.5,0.454,748.0,01.17,0.508
2016-10-04 00:08:00,1578E-3,5C000000,-0724,0827,12138,028.5,045.5,0.454,748.1,01.17,0.508
2016-10-04 00:09:00,1748E-3,5C000000,-0724,0828,12266,028.5,045.5,0.454,748.1,01.17,0.508
2016-10-04 00:10:00,1772E-3,5C000000,-0724,0828,12225,028.5,045.5,0.454,748.0,01.17,0.508
2016-10-04 00:11:00,1709E-3,5C000000,-0724,0827,12240,028.5,045.5,0.454,747.9,01.17,0.508
2016-10-04 00:12:00,1605E-3,5C000000,-0724,0827,12205,028.5,045.5,0.454,748.1,01.17,0.508
2016-10-04 00:13:00,1635E-3,5C000000,-0724,0827,12263,028.5,045.5,0.454,747.9,01.17,0.508
2016-10-04 00:14:00,1535E-3,5C000000,-0724,0827,12344,028.5,045.5,0.454,748.0,01.17,0.508
2016-10-04 00:15:00,1515E-3,5C000000,-0724,0827,12210,028.5,045.5,0.454,748.1,01.17,0.508
2016-10-04 00:16:00,1596E-3,5C000000,-0724,0827,12056,028.5,045.5,0.454,748.1,01.17,0.508
2016-10-04 00:17:00,1589E-3,5C000000,-0724,0827,12073,028.5,045.5,0.453,748.0,01.17,0.508
2016-10-04 00:18:00,1501E-3,5C000000,-0724,0827,12172,028.5,045.5,0.454,748.1,01.17,0.508
2016-10-04 00:19:00,1632E-3,5C000000,-0724,0827,12197,028.5,045.5,0.453,748.0,01.17,0.508
2016-10-04 00:20:00,1638E-3,5C000000,-0724,0828,12125,028.5,045.5,0.454,748.0,01.17,0.508
2016-10-04 00:21:00,1517E-3,5C000000,-0724,0826,12303,028.5,045.5,0.454,748.1,01.17,0.508
2016-10-04 00:22:00,1661E-3,5C000000,-0724,0828,12325,028.5,045.5,0.454,748.1,01.17,0.508
2016-10-04 00:23:00,1614E-3,5C000000,-0724,0828,12070,028.5,045.5,0.453,748.0,01.17,0.508
2016-10-04 00:24:00,1714E-3,5C000000,-0724,0828,12224,028.5,045.5,0.454,747.9,01.17,0.508
2016-10-04 00:25:00,1659E-3,5C000000,-0724,0827,12201,028.5,045.5,0.453,748.1,01.17,0.508
2016-10-04 00:26:00,1608E-3,5C000000,-0724,0827,12211,028.5,045.5,0.454,748.0,01.17,0.508
2016-10-04 00:27:00,1573E-3,5C000000,-0724,0827,12087,028.5,045.5,0.453,748.0,01.17,0.508
2016-10-04 00:28:00,1663E-3,5C000000,-0724,0827,12199,028.5,045.5,0.454,748.1,01.17,0.508
2016-10-04 00:29:00,1668E-3,5C000000,-0724,0827,12081,028.5,045.5,0.453,748.1,01.17,0.508
2016-10-04 00:30:00,1656E-3,5C000000,-0724,0827,12207,028.5,045.5,0.454,748.1,01.17,0.508
2016-10-04 00:31:00,1688E-3,5C000000,-0724,0828,12356,028.5,045.5,0.454,748.1,01.17,0.508
2016-10-04 00:32:00,1582E-3,5C000000,-0724,0827,12251,028.5,045.5,0.454,748.1,01.17,0.508
2016-10-04 00:33:00,1618E-3,5C000000,-0724,0826,12139,028.5,045.5,0.454,748.2,01.17,0.508
2016-10-04 00:34:00,1649E-3,5C000000,-0724,0826,12191,028.5,045.5,0.454,748.2,01.17,0.508
2016-10-04 00:35:00,1617E-3,5C000000,-0724,0827,12257,028.5,045.5,0.454,748.2,01.17,0.508
2016-10-04 00:36:00,1635E-3,5C000000,-0724,0826,12201,028.5,045.5,0.454,748.2,01.17,0.508
2016-10-04 00:37:00,1598E-3,5C000000,-0724,0827,12289,028.5,045.5,0.454,748.1,01.17,0.508
2016-10-04 00:38:00,1540E-3,5C000000,-0724,0828,12316,028.4,045.5,0.454,748.1,01.17,0.508
2016-10-04 00:39:00,1630E-3,5C000000,-0724,0827,12333,028.5,045.5,0.454,748.1,01.17,0.508
2016-10-04 00:40:00,1594E-3,5C000000,-0724,0827,12243,028.5,045.5,0.454,748.2,01.17,0.508
2016-10-04 00:41:00,1686E-3,5C000000,-0724,0827,12175,028.5,045.5,0.454,748.2,01.17,0.508
2016-10-04 00:42:00,1561E-3,5C000000,-0724,0827,12190,028.5,045.5,0.454,748.1,01.17,0.508
2016-10-04 00:43:00,1470E-3,5C000000,-0724,0827,12172,028.5,045.5,0.454,748.1,01.17,0.508
2016-10-04 00:44:00,1670E-3,5C000000,-0724,0827,12183,028.4,045.5,0.454,748.1,01.17,0.508
2016-10-04 00:45:00,1537E-3,5C000000,-0724,0828,12335,028.4,045.5,0.454,748.1,01.17,0.508
2016-10-04 00:46:00,1609E-3,5C000000,-0724,0828,12144,028.4,045.5,0.454,748.1,01.17,0.508
2016-10-04 00:47:00,1682E-3,5C000000,-0724,0828,12246,028.4,045.5,0.454,748.1,01.17,0.508
2016-10-04 00:48:00,1573E-3,5C000000,-0724,0827,12192,028.4,045.5,0.454,748.1,01.17,0.508
2016-10-04 00:49:00,1610E-3,5C000000,-0724,0828,12137,028.5,045.5,0.454,748.1,01.17,0.508
2016-10-04 00:50:00,1586E-3,5C000000,-0724,0829,12239,028.4,045.5,0.454,748.2,01.17,0.508
2016-10-04 00:51:00,1604E-3,5C000000,-0724,0828,12172,028.4,045.5,0.454,748.1,01.17,0.508
2016-10-04 00:52:00,1557E-3,5C000000,-0724,0829,12273,028.4,045.5,0.454,748.2,01.17,0.508
2016-10-04 00:53:00,1610E-3,5C000000,-0724,0827,12319,028.4,045.5,0.454,748.2,01.17,0.508
2016-10-04 00:54:00,1661E-3,5C000000,-0724,0827,12227,028.4,045.5,0.454,748.1,01.17,0.508
2016-10-04 00:55:00,1713E-3,5C000000,-0724,0828,12248,028.4,045.5,0.454,748.2,01.17,0.508
2016-10-04 00:56:00,1519E-3,5C000000,-0724,0827,12010,028.4,045.5,0.454,748.2,01.17,0.508
2016-10-04 00:57:00,1591E-3,5C000000,-0724,0827,12149,028.4,045.5,0.454,748.2,01.17,0.508
2016-10-04 00:58:00,1616E-3,5C000000,-0724,0828,12282,028.4,045.5,0.454,748.2,01.17,0.508
2016-10-04 00:59:00,1625E-3,5C000000,-0724,0828,12226,028.4,045.5,0.454,748.3,01.17,0.508
2016-10-04 01:00:00,1520E-3,5C000000,-0724,0828,12236,028.4,045.5,0.454,748.3,01.17,0.508
2016-10-04 01:01:00,1570E-3,5C000000,-0724,0828,12260,028.4,045.5,0.454,748.2,01.17,0.508
2016-10-04 01:02:00,1634E-3,5C000000,-0724,0827,12255,028.4,045.5,0.454,748.2,01.17,0.508
2016-10-04 01:03:00,1670E-3,5C000000,-0724,0827,12276,028.4,045.5,0.454,748.3,01.17,0.508
2016-10-04 01:04:00,1949E-3,5C000000,-0724,0828,12380,028.4,045.5,0.454,748.2,01.17,0.508
2016-10-04 01:05:00,2360E-3,5C000000,-0724,0828,12262,028.4,045.5,0.454,748.2,01.17,0.508
2016-10-04 01:06:00,2174E-3,5C000000,-0724,0828,12274,028.4,045.5,0.454,748.2,01.17,0.508
2016-10-04 01:07:00,1825E-3,5C000000,-0724,0829,12155,028.4,045.5,0.454,748.2,01.17,0.508
2016-10-04 01:08:00,1976E-3,5C000000,-0724,0828,12121,028.4,045.5,0.455,748.2,01.17,0.508
2016-10-04 01:09:00,1982E-3,5C000000,-0724,0828,12070,028.4,045.5,0.454,748.2,01.17,0.508
2016-10-04 01:10:00,1790E-3,5C000000,-0724,0828,12239,028.4,045.5,0.454,748.2,01.17,0.508
2016-10-04 01:11:00,1511E-3,5C000000,-0724,0827,12171,028.4,045.5,0.454,748.2,01.17,0.508
2016-10-04 01:12:00,1651E-3,5C000000,-0724,0828,12208,028.4,045.5,0.454,748.3,01.17,0.508
2016-10-04 01:13:00,1619E-3,5C000000,-0724,0827,12286,028.4,045.5,0.454,748.2,01.17,0.508
2016-10-04 01:14:00,1711E-3,5C000000,-0724,0828,12216,028.4,045.5,0.454,748.2,01.17,0.508
2016-10-04 01:15:00,1631E-3,5C000000,-0724,0827,12165,028.4,045.5,0.454,748.3,01.17,0.508
2016-10-04 01:16:00,1618E-3,5C000000,-0724,0828,12295,028.4,045.5,0.454,748.4,01.17,0.508
2016-10-04 01:17:00,1586E-3,5C000000,-0724,0828,12145,028.4,045.5,0.454,748.2,01.17,0.508
2016-10-04 01:18:00,1706E-3,5C000000,-0724,0828,12138,028.4,045.5,0.454,748.3,01.17,0.508
2016-10-04 01:19:00,1572E-3,5C000000,-0724,0828,12197,028.4,045.5,0.455,748.3,01.17,0.508
2016-10-04 01:20:00,1665E-3,5C000000,-0724,0827,12098,028.4,045.5,0.454,748.2,01.17,0.508
2016-10-04 01:21:00,1669E-3,5C000000,-0724,0826,12299,028.4,045.5,0.454,748.2,01.17,0.508
2016-10-04 01:22:00,1561E-3,5C000000,-0724,0827,12150,028.4,045.5,0.454,748.2,01.17,0.508
2016-10-04 01:23:00,1560E-3,5C000000,-0724,0827,12316,028.4,045.5,0.454,748.3,01.17,0.508
2016-10-04 01:24:00,1607E-3,5C000000,-0724,0829,12205,028.3,045.5,0.455,748.3,01.17,0.508
2016-10-04 01:25:00,1612E-3,5C000000,-0724,0828,12153,028.3,045.5,0.454,748.3,01.17,0.508
2016-10-04 01:26:00,1538E-3,5C000000,-0724,0828,12253,028.4,045.5,0.454,748.3,01.17,0.508
2016-10-04 01:27:00,1864E-3,5C000000,-0724,0828,12202,028.3,045.5,0.454,748.2,01.17,0.508
2016-10-04 01:28:00,2251E-3,5C000000,-0724,0827,12313,028.3,045.5,0.454,748.3,01.17,0.508
2016-10-04 01:29:00,2459E-3,5C000000,-0724,0828,12165,028.3,045.5,0.455,748.3,01.17,0.508
2016-10-04 01:30:00,2354E-3,5C000000,-0724,0827,12211,028.3,045.5,0.454,748.3,01.17,0.508
2016-10-04 01:31:00,2310E-3,5C000000,-0724,0828,12245,028.3,045.5,0.454,748.2,01.17,0.508
2016-10-04 01:32:00,2040E-3,5C000000,-0724,0828,12130,028.3,045.5,0.454,748.3,01.17,0.508
2016-10-04 01:33:00,1936E-3,5C000000,-0724,0827,12249,028.3,045.5,0.454,748.3,01.17,0.508
2016-10-04 01:34:00,1581E-3,5C000000,-0724,0828,12275,028.3,045.5,0.455,748.3,01.17,0.508
2016-10-04 01:35:00,1689E-3,5C000000,-0724,0827,12217,028.3,045.5,0.454,748.3,01.17,0.508
2016-10-04 01:36:00,1678E-3,5C000000,-0724,0827,12350,028.3,045.5,0.455,748.3,01.17,0.508
2016-10-04 01:37:00,1644E-3,5C000000,-0724,0829,12115,028.3,045.5,0.454,748.3,01.17,0.508
2016-10-04 01:38:00,1556E-3,5C000000,-0724,0827,12225,028.3,045.5,0.454,748.3,01.17,0.508
2016-10-04 01:39:00,1577E-3,5C000000,-0724,0828,12221,028.3,045.5,0.455,748.2,01.17,0.508
2016-10-04 01:40:00,1611E-3,5C000000,-0724,0827,12316,028.3,045.5,0.454,748.3,01.17,0.508
2016-10-04 01:41:00,1614E-3,5C000000,-0724,0827,12285,028.3,045.5,0.455,748.3,01.17,0.508
2016-10-04 01:42:00,1710E-3,5C000000,-0724,0827,12232,028.3,045.5,0.454,748.3,01.17,0.508
2016-10-04 01:43:00,1523E-3,5C000000,-0724,0828,12327,028.3,045.5,0.454,748.3,01.17,0.508
2016-10-04 01:44:00,1537E-3,5C000000,-0724,0828,12112,028.2,045.5,0.455,748.3,01.17,0.508
2016-10-04 01:45:00,1487E-3,5C000000,-0724,0828,12214,028.2,045.5,0.454,748.3,01.17,0.508
2016-10-04 01:46:00,1641E-3,5C000000,-0724,0828,12314,028.3,045.5,0.454,748.3,01.17,0.508
2016-10-04 01:47:00,1555E-3,5C000000,-0724,0827,12217,028.2,045.5,0.455,748.2,01.17,0.508
2016-10-04 01:48:00,1565E-3,5C000000,-0724,0827,12295,028.2,045.5,0.454,748.3,01.17,0.508
2016-10-04 01:49:00,1512E-3,5C000000,-0724,0827,12200,028.2,045.5,0.455,748.3,01.17,0.508
2016-10-04 01:50:00,1550E-3,5C000000,-0724,0828,12160,028.2,045.5,0.455,748.3,01.17,0.508
2016-10-04 01:51:00,1581E-3,5C000000,-0724,0828,12253,028.3,045.5,0.454,748.2,01.17,0.508
2016-10-04 01:52:00,1612E-3,5C000000,-0724,0827,12331,028.2,045.5,0.455,748.4,01.17,0.508
2016-10-04 01:53:00,1742E-3,5C000000,-0724,0827,12242,028.2,045.5,0.454,748.3,01.17,0.508
2016-10-04 01:54:00,1670E-3,5C000000,-0724,0827,12210,028.2,045.5,0.455,748.3,01.17,0.508
2016-10-04 01:55:00,1574E-3,5C000000,-0724,0828,12197,028.3,045.5,0.454,748.2,01.17,0.508
2016-10-04 01:56:00,1628E-3,5C000000,-0724,0828,12107,028.3,045.5,0.454,748.2,01.17,0.508
2016-10-04 01:57:00,1604E-3,5C000000,-0724,0828,12320,028.2,045.5,0.455,748.3,01.17,0.508
2016-10-04 01:58:00,1699E-3,5C000000,-0724,0827,12196,028.2,045.5,0.454,748.2,01.17,0.508
2016-10-04 01:59:00,1568E-3,5C000000,-0724,0828,12264,028.2,045.5,0.455,748.2,01.17,0.508
2016-10-04 02:00:00,1627E-3,5C000000,-0724,0829,12329,028.2,045.5,0.454,748.2,01.17,0.508
2016-10-04 02:01:00,1620E-3,5C000000,-0724,0828,12093,028.2,045.5,0.454,748.3,01.17,0.508
2016-10-04 02:02:00,1542E-3,5C000000,-0724,0828,12025,028.2,045.5,0.455,748.2,01.17,0.508
2016-10-04 02:03:00,1567E-3,5C000000,-0724,0828,12132,028.2,045.5,0.454,748.3,01.17,0.508
2016-10-04 02:04:00,1698E-3,5C000000,-0724,0827,12258,028.2,045.5,0.455,748.3,01.17,0.508
2016-10-04 02:05:00,1608E-3,5C000000,-0724,0828,12059,028.3,045.5,0.455,748.3,01.17,0.508
2016-10-04 02:06:00,1571E-3,5C000000,-0724,0828,12189,028.2,045.5,0.454,748.3,01.17,0.508
2016-10-04 02:07:00,1562E-3,5C000000,-0724,0828,12093,028.2,045.5,0.455,748.3,01.17,0.508
2016-10-04 02:08:00,1588E-3,5C000000,-0724,0828,12212,028.2,045.5,0.455,748.2,01.17,0.508
2016-10-04 02:09:00,1609E-3,5C000000,-0724,0828,12186,028.2,045.5,0.455,748.2,01.17,0.508
2016-10-04 02:10:00,1603E-3,5C000000,-0724,0827,12236,028.2,045.5,0.454,748.2,01.17,0.508
2016-10-04 02:11:00,1591E-3,5C000000,-0724,0827,12133,028.1,045.5,0.455,748.3,01.17,0.508
2016-10-04 02:12:00,1539E-3,5C000000,-0724,0828,12142,028.1,045.5,0.455,748.2,01.17,0.508
2016-10-04 02:13:00,1630E-3,5C000000,-0724,0827,12351,028.1,045.5,0.454,748.3,01.17,0.508
2016-10-04 02:14:00,1781E-3,5C000000,-0724,0827,12312,028.1,045.5,0.455,748.2,01.17,0.508
2016-10-04 02:15:00,1499E-3,5C000000,-0724,0827,12176,028.1,045.5,0.455,748.3,01.17,0.508
2016-10-04 02:16:00,1586E-3,5C000000,-0724,0828,12021,028.1,045.5,0.454,748.3,01.17,0.508
2016-10-04 02:17:00,1560E-3,5C000000,-0724,0827,12215,028.1,045.5,0.455,748.2,01.17,0.508
2016-10-04 02:18:00,1713E-3,5C000000,-0724,0827,12292,028.1,045.5,0.454,748.2,01.17,0.508
2016-10-04 02:19:00,1487E-3,5C000000,-0724,0827,12115,028.1,045.5,0.455,748.3,01.17,0.508
2016-10-04 02:20:00,1561E-3,5C000000,-0724,0827,12193,028.1,045.5,0.455,748.3,01.17,0.508
2016-10-04 02:21:00,1538E-3,5C000000,-0724,0827,12186,028.1,045.5,0.454,748.1,01.17,0.508
2016-10-04 02:22:00,1592E-3,5C000000,-0724,0828,12243,028.1,045.5,0.455,748.1,01.17,0.508
2016-10-04 02:23:00,1659E-3,5C000000,-0724,0827,12196,028.1,045.5,0.454,748.2,01.17,0.508
2016-10-04 02:24:00,1637E-3,5C000000,-0724,0828,12273,028.1,045.5,0.455,748.2,01.17,0.508
2016-10-04 02:25:00,1544E-3,5C000000,-0724,0827,12232,028.1,045.5,0.455,748.3,01.17,0.508
2016-10-04 02:26:00,1571E-3,5C000000,-0724,0828,12187,028.1,045.5,0.454,748.3,01.17,0.508
2016-10-04 02:27:00,1566E-3,5C000000,-0724,0827,12232,028.1,045.5,0.455,748.3,01.17,0.508
2016-10-04 02:28:00,1629E-3,5C000000,-0724,0828,12213,028.1,045.5,0.455,748.2,01.17,0.508
2016-10-04 02:29:00,1556E-3,5C000000,-0724,0827,12276,028.1,045.5,0.455,748.2,01.17,0.508
2016-10-04 02:30:00,1585E-3,5C000000,-0724,0827,12338,028.1,045.5,0.455,748.2,01.17,0.508
2016-10-04 02:31:00,1754E-3,5C000000,-0724,0827,12223,028.1,045.5,0.455,748.2,01.17,0.508
2016-10-04 02:32:00,1498E-3,5C000000,-0724,0828,12352,028.0,045.5,0.455,748.3,01.17,0.508
2016-10-04 02:33:00,1499E-3,5C000000,-0724,0827,12320,028.1,045.5,0.455,748.2,01.17,0.508
2016-10-04 02:34:00,1514E-3,5C000000,-0724,0827,12086,028.1,045.5,0.455,748.3,01.17,0.508
2016-10-04 02:35:00,1458E-3,5C000000,-0724,0827,12225,028.1,045.5,0.455,748.3,01.17,0.508
2016-10-04 02:36:00,1697E-3,5C000000,-0724,0827,12147,028.1,045.5,0.455,748.4,01.17,0.508
2016-10-04 02:37:00,1738E-3,5C000000,-0724,0827,12168,028.1,045.5,0.454,748.2,01.17,0.508
2016-10-04 02:38:00,1634E-3,5C000000,-0724,0827,12333,028.1,045.5,0.455,748.3,01.17,0.508
2016-10-04 02:39:00,1623E-3,5C000000,-0724,0827,12270,028.1,045.5,0.455,748.3,01.17,0.508
2016-10-04 02:40:00,1559E-3,5C000000,-0724,0827,12305,028.1,045.5,0.455,748.4,01.17,0.508
2016-10-04 02:41:00,1632E-3,5C000000,-0724,0827,12207,028.0,045.5,0.455,748.3,01.17,0.508
2016-10-04 02:42:00,1634E-3,5C000000,-0724,0827,12111,028.0,045.5,0.455,748.3,01.17,0.508
2016-10-04 02:43:00,1655E-3,5C000000,-0724,0827,12103,028.0,045.5,0.455,748.3,01.17,0.508
2016-10-04 02:44:00,1694E-3,5C000000,-0724,0828,12098,028.0,045.5,0.455,748.3,01.17,0.508
2016-10-04 02:45:00,1589E-3,5C000000,-0724,0828,12373,028.1,045.5,0.455,748.3,01.17,0.508
2016-10-04 02:46:00,1695E-3,5C000000,-0724,0827,12254,028.1,045.5,0.455,748.3,01.17,0.508
2016-10-04 02:47:00,1531E-3,5C000000,-0724,0827,12172,028.1,045.5,0.454,748.2,01.17,0.508
2016-10-04 02:48:00,1554E-3,5C000000,-0724,0827,12207,028.1,045.5,0.455,748.3,01.17,0.508
2016-10-04 02:49:00,1634E-3,5C000000,-0724,0827,12209,028.1,045.5,0.454,748.3,01.17,0.508
2016-10-04 02:50:00,1527E-3,5C000000,-0724,0828,12250,028.1,045.5,0.455,748.3,01.17,0.508
2016-10-04 02:51:00,1613E-3,5C000000,-0724,0827,12113,028.1,045.5,0.455,748.3,01.17,0.508
2016-10-04 02:52:00,1640E-3,5C000000,-0724,0828,12194,028.1,045.5,0.454,748.2,01.17,0.508
2016-10-04 02:53:00,1693E-3,5C000000,-0724,0827,12313,028.1,045.5,0.455,748.3,01.17,0.508
2016-10-04 02:54:00,1873E-3,5C000000,-0724,0826,12197,028.1,045.5,0.455,748.2,01.17,0.508
2016-10-04 02:55:00,1641E-3,5C000000,-0724,0827,12140,028.1,045.5,0.455,748.2,01.17,0.508
2016-10-04 02:56:00,1547E-3,5C000000,-0724,0827,12280,028.1,045.5,0.455,748.2,01.17,0.508
2016-10-04 02:57:00,1482E-3,5C000000,-0724,0828,12229,028.1,045.5,0.455,748.3,01.17,0.508
2016-10-04 02:58:00,1732E-3,5C000000,-0724,0828,12169,028.1,045.5,0.455,748.2,01.17,0.508
2016-10-04 02:59:00,1592E-3,5C000000,-0724,0827,12163,028.0,045.5,0.455,748.2,01.17,0.508
2016-10-04 03:00:00,1655E-3,5C000000,-0724,0827,12163,028.0,045.5,0.455,748.1,01.17,0.508
2016-10-04 03:01:00,1605E-3,5C000000,-0724,0827,12230,028.0,045.5,0.455,748.2,01.17,0.508
2016-10-04 03:02:00,1674E-3,5C000000,-0724,0827,12246,028.0,045.5,0.455,748.3,01.17,0.508
2016-10-04 03:03:00,1633E-3,5C000000,-0724,0828,12277,028.0,045.5,0.455,748.3,01.17,0.508
2016-10-04 03:04:00,1638E-3,5C000000,-0724,0828,12096,028.0,045.5,0.455,748.3,01.17,0.508
2016-10-04 03:05:00,1664E-3,5C000000,-0724,0828,12103,028.0,045.5,0.455,748.4,01.17,0.508
2016-10-04 03:06:00,1532E-3,5C000000,-0724,0828,12287,028.0,045.5,0.455,748.4,01.17,0.508
2016-10-04 03:07:00,1497E-3,5C000000,-0724,0828,12195,028.0,045.5,0.455,748.2,01.17,0.508
2016-10-04 03:08:00,1511E-3,5C000000,-0724,0827,12206,028.0,045.5,0.455,748.2,01.17,0.508
2016-10-04 03:09:00,1643E-3,5C000000,-0724,0828,12229,028.0,045.5,0.455,748.3,01.17,0.508
2016-10-04 03:10:00,1616E-3,5C000000,-0724,0828,12137,028.0,045.5,0.455,748.3,01.17,0.508
2016-10-04 03:11:00,1490E-3,5C000000,-0724,0827,12089,028.0,045.5,0.455,748.3,01.17,0.508
2016-10-04 03:12:00,1771E-3,5C000000,-0724,0828,12169,028.0,045.5,0.455,748.4,01.17,0.508
2016-10-04 03:13:00,1614E-3,5C000000,-0724,0828,12317,028.0,045.5,0.455,748.4,01.17,0.508
2016-10-04 03:14:00,1661E-3,5C000000,-0724,0828,12262,028.0,045.5,0.455,748.4,01.17,0.508
2016-10-04 03:15:00,1556E-3,5C000000,-0724,0827,12177,028.0,045.5,0.455,748.4,01.17,0.508
2016-10-04 03:16:00,1748E-3,5C000000,-0724,0828,12367,028.0,045.5,0.455,748.4,01.17,0.508
2016-10-04 03:17:00,1693E-3,5C000000,-0724,0827,12157,028.0,045.5,0.455,748.4,01.17,0.508
2016-10-04 03:18:00,1589E-3,5C000000,-0724,0828,12440,028.0,045.5,0.455,748.4,01.17,0.508
2016-10-04 03:19:00,1670E-3,5C000000,-0724,0828,12336,028.0,045.5,0.455,748.3,01.17,0.508
2016-10-04 03:20:00,1605E-3,5C000000,-0724,0827,12214,028.0,045.5,0.455,748.4,01.17,0.508
2016-10-04 03:21:00,1561E-3,5C000000,-0724,0828,12307,028.0,045.5,0.455,748.4,01.17,0.508
2016-10-04 03:22:00,1566E-3,5C000000,-0724,0827,12350,028.0,045.5,0.455,748.5,01.17,0.508
2016-10-04 03:23:00,1639E-3,5C000000,-0724,0828,12271,028.0,045.5,0.455,748.4,01.17,0.508
2016-10-04 03:24:00,1685E-3,5C000000,-0724,0828,12269,028.0,045.5,0.455,748.5,01.17,0.508
2016-10-04 03:25:00,1557E-3,5C000000,-0724,0829,12290,028.0,045.5,0.455,748.4,01.17,0.508
2016-10-04 03:26:00,1570E-3,5C000000,-0724,0828,12216,028.0,045.5,0.455,748.5,01.17,0.508
2016-10-04 03:27:00,1630E-3,5C000000,-0724,0827,12322,028.0,045.5,0.456,748.5,01.17,0.508
2016-10-04 03:28:00,1495E-3,5C000000,-0724,0828,12195,027.9,045.5,0.455,748.5,01.17,0.508
2016-10-04 03:29:00,1525E-3,5C000000,-0724,0828,12214,027.9,045.5,0.455,748.4,01.17,0.508
2016-10-04 03:30:00,1642E-3,5C000000,-0724,0828,12347,027.9,045.5,0.456,748.4,01.17,0.508
2016-10-04 03:31:00,1542E-3,5C000000,-0724,0828,12105,027.9,045.5,0.455,748.4,01.17,0.508
2016-10-04 03:32:00,1596E-3,5C000000,-0724,0827,12170,027.9,045.4,0.455,748.4,01.17,0.508
2016-10-04 03:33:00,1695E-3,5C000000,-0724,0828,12149,027.9,045.5,0.456,748.4,01.17,0.508
2016-10-04 03:34:00,1498E-3,5C000000,-0724,0827,12288,027.9,045.5,0.455,748.5,01.17,0.508
2016-10-04 03:35:00,1470E-3,5C000000,-0724,0828,12188,027.9,045.5,0.455,748.5,01.17,0.508
2016-10-04 03:36:00,1569E-3,5C000000,-0724,0827,12248,027.9,045.5,0.456,748.4,01.17,0.508
2016-10-04 03:37:00,1764E-3,5C000000,-0724,0828,12149,027.9,045.5,0.455,748.5,01.17,0.508
2016-10-04 03:38:00,1590E-3,5C000000,-0724,0828,12193,027.9,045.5,0.455,748.5,01.17,0.508
2016-10-04 03:39:00,1563E-3,5C000000,-0724,0828,12247,027.9,045.5,0.456,748.4,01.17,0.508
2016-10-04 03:40:00,1524E-3,5C000000,-0724,0828,12130,027.9,045.5,0.455,748.4,01.17,0.508
2016-10-04 03:41:00,1768E-3,5C000000,-0724,0828,12313,027.8,045.5,0.455,748.5,01.17,0.508
2016-10-04 03:42:00,1563E-3,5C000000,-0724,0827,12187,027.8,045.5,0.456,748.4,01.17,0.508
2016-10-04 03:43:00,1639E-3,5C000000,-0724,0828,12164,027.8,045.5,0.455,748.5,01.17,0.508
2016-10-04 03:44:00,1594E-3,5C000000,-0724,0827,12008,027.8,045.5,0.455,748.4,01.17,0.508
2016-10-04 03:45:00,1610E-3,5C000000,-0724,0828,12244,027.8,045.5,0.456,748.4,01.17,0.508
2016-10-04 03:46:00,1596E-3,5C000000,-0724,0827,12242,027.8,045.4,0.455,748.5,01.17,0.508
2016-10-04 03:47:00,1577E-3,5C000000,-0724,0827,12266,027.8,045.5,0.456,748.3,01.17,0.508
2016-10-04 03:48:00,1616E-3,5C000000,-0724,0828,12157,027.8,045.5,0.455,748.4,01.17,0.508
2016-10-04 03:49:00,1637E-3,5C000000,-0724,0827,12193,027.8,045.5,0.455,748.4,01.17,0.508
2016-10-04 03:50:00,1570E-3,5C000000,-0724,0827,12243,027.8,045.5,0.456,748.5,01.17,0.508
2016-10-04 03:51:00,1500E-3,5C000000,-0724,0827,12152,027.9,045.5,0.455,748.4,01.17,0.508
2016-10-04 03:52:00,1498E-3,5C000000,-0724,0828,12288,027.9,045.5,0.456,748.4,01.17,0.508
2016-10-04 03:53:00,1542E-3,5C000000,-0724,0828,12257,027.9,045.5,0.455,748.4,01.17,0.508
2016-10-04 03:54:00,1499E-3,5C000000,-0724,0827,12126,027.9,045.5,0.456,748.3,01.17,0.508
2016-10-04 03:55:00,1649E-3,5C000000,-0724,0828,12252,027.9,045.5,0.455,748.3,01.17,0.508
2016-10-04 03:56:00,1511E-3,5C000000,-0724,0828,10995,027.8,045.5,0.456,748.4,01.17,0.508
2016-10-04 03:57:00,1676E-3,5C000000,-0724,0828,12252,027.8,045.5,0.456,748.4,01.17,0.508
2016-10-04 03:58:00,1726E-3,5C000000,-0724,0828,12308,027.8,045.5,0.455,748.4,01.17,0.508
2016-10-04 03:59:00,1643E-3,5C000000,-0724,0828,12345,027.8,045.5,0.456,748.4,01.17,0.508
2016-10-04 04:00:00,1786E-3,5C000000,-0724,0829,12126,027.7,045.5,0.456,748.5,01.17,0.508
2016-10-04 04:01:00,1851E-3,5C000000,-0724,0828,12184,027.7,045.5,0.455,748.4,01.17,0.508
2016-10-04 04:02:00,1667E-3,5C000000,-0724,0829,12258,027.7,045.4,0.456,748.4,01.17,0.508
2016-10-04 04:03:00,1974E-3,5C000000,-0724,0828,12241,027.7,045.5,0.456,748.4,01.17,0.508
2016-10-04 04:04:00,2009E-3,5C000000,-0724,0828,12113,027.7,045.5,0.455,748.4,01.17,0.508
2016-10-04 04:05:00,1798E-3,5C000000,-0724,0828,12182,027.8,045.5,0.456,748.4,01.17,0.508
2016-10-04 04:06:00,1603E-3,5C000000,-0724,0828,12225,027.8,045.5,0.456,748.4,01.17,0.508
2016-10-04 04:07:00,1575E-3,5C000000,-0724,0828,12374,027.8,045.5,0.456,748.4,01.17,0.508
2016-10-04 04:08:00,1807E-3,5C000000,-0724,0827,12243,027.8,045.5,0.456,748.4,01.17,0.508
2016-10-04 04:09:00,2084E-3,5C000000,-0724,0828,12222,027.8,045.5,0.455,748.4,01.17,0.508
2016-10-04 04:10:00,1917E-3,5C000000,-0724,0828,11100,027.8,045.5,0.456,748.4,01.17,0.508
2016-10-04 04:11:00,2063E-3,5C000000,-0724,0828,12066,027.8,045.5,0.455,748.4,01.17,0.508
2016-10-04 04:12:00,1830E-3,5C000000,-0724,0827,12213,027.8,045.5,0.456,748.5,01.17,0.508
2016-10-04 04:13:00,1787E-3,5C000000,-0724,0828,12318,027.8,045.5,0.455,748.4,01.17,0.508
2016-10-04 04:14:00,1600E-3,5C000000,-0724,0828,12327,027.7,045.5,0.456,748.4,01.17,0.508
2016-10-04 04:15:00,1641E-3,5C000000,-0724,0828,12310,027.7,045.5,0.456,748.4,01.17,0.508
2016-10-04 04:16:00,1647E-3,5C000000,-0724,0828,12104,027.7,045.5,0.455,748.4,01.17,0.508
2016-10-04 04:17:00,1524E-3,5C000000,-0724,0826,12244,027.7,045.5,0.456,748.4,01.17,0.508
2016-10-04 04:18:00,1644E-3,5C000000,-0724,0828,12119,027.7,045.5,0.455,748.3,01.17,0.508
2016-10-04 04:19:00,1567E-3,5C000000,-0724,0828,12266,027.7,045.5,0.456,748.4,01.17,0.508
2016-10-04 04:20:00,1537E-3,5C000000,-0724,0829,12209,027.7,045.5,0.456,748.4,01.17,0.508